Regional Weather Roundup
Issued by NWS Burlington, VT

Home | Current Version | Previous Version | Text Only | Print | Product List | Glossary On
Versions: 1 2 3 4 5 6 7 8 9 10 11 12 13 14 15 16 17 18 19 20 21 22 23 24 25 26 27 28 29 30 31 32 33 34 35 36 37 38 39 40 41 42 43 44 45 46 47 48 49 50
545
ASUS41 KBTV 250630
RWRBTV
VERMONT REGIONAL WEATHER ROUNDUP
NATIONAL WEATHER SERVICE BURLINGTON VT
100 AM EST SUN FEB 25 2018

NOTE: "FAIR" INDICATES FEW OR NO CLOUDS BELOW 12,000 FEET WITH NO
SIGNIFICANT WEATHER AND/OR OBSTRUCTIONS TO VISIBILITY.

* THESE REPORTS ARE NOT UNDER NWS QUALITY CONTROL AND/OR DO NOT
  REPORT WEATHER SUCH AS PRECIPITATION AND FOG.

VTZ001>019-250700-
_____VERMONT_____


CITY           SKY/WX    TMP DP  RH WIND       PRES   REMARKS
BURLINGTON     FAIR      28  23  81 CALM      30.27F
6HR MIN TEMP:  27; 6HR MAX TEMP:  33;

MONTPELIER     FAIR      25  24  96 CALM      30.30S
6HR MIN TEMP:  23; 6HR MAX TEMP:  32;

MORRISVILLE    FAIR      23  22  96 S5        30.30R WCI  17
6HR MIN TEMP:  22; 6HR MAX TEMP:  30;

ST. JOHNSBURY*   N/A     25  25 100 MISG      30.27S
6HR MIN TEMP:  25; 6HR MAX TEMP:  33;

LYNDONVILLE*   FAIR      27  21  79 CALM      30.28R
6HR MIN TEMP:  26; 6HR MAX TEMP:  31;

MIDDLEBURY*    FAIR      26  24  93 CALM      30.28R
6HR MIN TEMP:  26; 6HR MAX TEMP:  32;

RUTLAND*       FAIR      28  27  96 W3        30.25F
6HR MIN TEMP:  26; 6HR MAX TEMP:  36;

SPRINGFIELD    FAIR      27  26  96 CALM      30.28F
6HR MIN TEMP:  26; 6HR MAX TEMP:  37;

HIGHGATE*      FAIR      26  24  91 CALM      30.30R
6HR MIN TEMP:  24; 6HR MAX TEMP:  30;

NEWPORT*       FAIR      25  22  89 CALM      30.29R
6HR MIN TEMP:  25; 6HR MAX TEMP:  30;

BENNINGTON     FAIR      34  26  72 NW3       30.21F
6HR MIN TEMP:  29; 6HR MAX TEMP:  38;

GALLUP MILLS*    N/A     21 N/A N/A MISG        N/A
UNION VILLAGE*   N/A     27 N/A N/A MISG        N/A
MT. MANSFIELD*   N/A     21 N/A N/A SE54        N/A  WCI  -2

_____LAKE CHAMPLAIN_____


CITY           SKY/WX    TMP DP  RH WIND       PRES   REMARKS
BURTON ISLAND*   N/A     28  27  93 N1          N/A
COLCHESTER RF*   N/A     32  27  80 NW8         N/A  WCI  25

$$

NYZ007-026>031-035-052-083-087-250700-
_____NORTHERN NEW YORK_____


CITY           SKY/WX    TMP DP  RH WIND       PRES   REMARKS
PLATTSBURGH    FAIR      25  22  88 CALM      30.29S
6HR MIN TEMP:  25; 6HR MAX TEMP:  32;

SARANAC LAKE   FAIR      25  23  92 NE7       30.16F WCI  17
6HR MIN TEMP:  22; 6HR MAX TEMP:  28;

MASSENA        FAIR      29  24  82 E10       30.27S WCI  20
6HR MIN TEMP:  26; 6HR MAX TEMP:  31;

OGDENSBURG*    FAIR      30  25  80 E9        30.22F WCI  22
6HR MIN TEMP:  25; 6HR MAX TEMP:  30;

POTSDAM*       PTCLDY    28  25  86 E9        30.23S WCI  20
STARK FALLS*     N/A     28 N/A N/A SE7         N/A  WCI  21
WATERTOWN      FAIR      31  28  89 E7        30.17F WCI  24
6HR MIN TEMP:  27; 6HR MAX TEMP:  34;

FT DRUM        FAIR      29  26  89 NE3       30.17R
6HR MIN TEMP:  28; 6HR MAX TEMP:  32;

ALBANY         CLOUDY    34  26  72 N7        30.25R WCI  28
6HR MIN TEMP:  34; 6HR MAX TEMP:  39;

GLENS FALLS    FAIR      30  25  81 N3        30.27S
6HR MIN TEMP:  27; 6HR MAX TEMP:  37;


$$
NHZ002-005-011-250700-
_____NEW HAMPSHIRE_____


CITY           SKY/WX    TMP DP  RH WIND       PRES   REMARKS
LEBANON        FAIR      28  26  92 CALM      30.27F
6HR MIN TEMP:  27; 6HR MAX TEMP:  36;

KEENE          FAIR      27  25  92 CALM      30.27F
6HR MIN TEMP:  27; 6HR MAX TEMP:  40;

MT WASHINGTON  PTCLDY    21  -2  35 W14         N/A  WCI   8
6HR MIN TEMP:  11; 6HR MAX TEMP:  22;

PLYMOUTH       FAIR      24  23  96 CALM      30.30S
6HR MIN TEMP:  24; 6HR MAX TEMP:  38;

WHITEFIELD     FAIR      28  21  75 E3        30.25S
6HR MIN TEMP:  23; 6HR MAX TEMP:  33;


$$

_____REGIONAL QUEBEC LOCATIONS_____


CITY           SKY/WX    TMP DP  RH WIND       PRES   REMARKS
MONTREAL       MOCLDY    28  12  50 NE16      30.30S WCI  17
QUEBEC CITY    CLEAR     16   5  62 NE6       30.37R WCI   7
SHERBROOKE     CLEAR     23  19  86 E7        30.29S WCI  15

_____REGIONAL ONTARIO LOCATIONS_____


CITY           SKY/WX    TMP DP  RH WIND       PRES   REMARKS
OTTAWA         CLOUDY    27  19  74 E10       30.23F WCI  17

______KEY______
VSB  - VISIBILITY IN MILES
WCI  - WIND CHILL INDEX
HX   - HEAT INDEX
$$
NNNN




USA.gov is the U.S. government's official web portal to all federal, state and local government web resources and services.